STARLINK-36801, 67888

Orbit data source: Space-Track

STARLINK-36801, 67888 is a payload satellite owned by SpaceX/Seattle (US) in SSO that was launched on Sat, 21 Feb 2026 UTC via an FALCON 9 launch vehicle from the Air Force Western Test Range (AFWTR). Payload-class satellites include a variety of spacecraft equipped with specific instruments for various scientific and technological missions. These include communications satellites like Starlink; space stations such as the ISS; scientific satellites like the Hubble; Earth observation satellites from companies like Planet Labs, Umbra, and HawkEye 360; GPS; miniature CubeSats for education and research; and military/defense satellites.

Loading next visibility...
Identifier
67888, 2026-035K
Orbit
SSO
Country
Flag of USUS
Related business
Manufacturer
SpaceX/Seattle
Mission
Operational Commercial Communications
Bus & Motor
STARLINK V2MO, Unknown motor
Mass
575 kg wet, ~530 kg dry
Launch date (UTC)
2026-02-21 (4 months ago)
Launch vehicle
FALCON 9
Launch site
Air Force Western Test Range (AFWTR)
Object type
Payload
Rocket body
Debris
Shape & HBR
Box + 2 Pan, 17.7 m
Radar Cross Section
36.964 m², Large (>1 m²)

Expand to show TLE details & history
Last TLE update: 12 hours ago

TLE from 12 hours ago
0 STARLINK-36801
1 67888U 26035K   26171.36202061  .00017999  00000-0  55847-3 0  9997
2 67888  97.2824 104.5307 0002774 104.3304 255.8247 15.33444622 19722
Epoch: 2026-06-20T08:41Z
TLE epoch observation values (Epoch: 2026-06-20T08:41:18.580Z)
Latitude
-0.00002°
Longitude
65.62555°
Altitude
469.122 km
Speed
7.631 km/s
True Right ascension
06h 58m 07s
True Declination
0° 00' 00"
Sunlit
Object was in daylight at epoch
Visualization orbit readout
Latitude
Unknown
Longitude
Unknown
Altitude
Unknown
Speed
Unknown
Apparent Right ascension
Unknown
Apparent Declination
Unknown
Sunlit
N/A
Visualization observer readout
Local Sidereal Time
07:16:30
Azimuth
Unknown
Elevation
Unknown
Doppler factor
Unknown
Orbital elements
Apogee altitude
464.385 km
Perigee altitude
460.589 km
Semi-major axis
6,840.624 km
Eccentricity
0.00028
Inclination
97.2824°
RAAN
104.5307°
Arg. of periapsis
104.3304°
True anomaly
255.79388°
Mean anomaly
255.8247°
Eccentric anomaly
255.80929°
Mean motion
3.83619 °/min
Orbital period
93.84 mins
BSTAR
0.00055847
Loading maneuver chart data...
Computing Atmospheric mass density...
Loading historical data...
Loading historical data...
Loading historical data...
Loading historical data...
Loading historical data...
Loading historical data...
Loading historical data...

Documentation

Showing up to 5 results
|